Prescott, AZ

7:20 PM MST on October 14, 2019 (GMT -0700)
Love

Weather History for KPRC - August, 2019

Change the Weather History Date:

Sunday, August 25, 2019

  Actual Average Record
Temperature  
Mean Temperature 78 °F 73 °F  
Max Temperature 91 °F 86 °F 95 °F (2011)
Min Temperature 64 °F 59 °F 49 °F (2002)
Degree Days  
Heating Degree Days 0    
Month to date heating degree days 0  
Since 1 July heating degree days 0  
Cooling Degree Days 12    
Month to date cooling degree days 316  
Year to date cooling degree days 884  
Growing Degree Days 28 (Base 50)    
Moisture  
Dew Point 54 °F    
Average Humidity 43    
Maximum Humidity 73    
Minimum Humidity 24    
Precipitation  
Precipitation 0.00 in 0.08 in 1.23 in (1971)
Month to date precipitation 0.30 2.17  
Year to date precipitation 8.11 9.21  
Sea Level Pressure  
Sea Level Pressure 29.91 in    
Wind  
Wind Speed 7 mph ()    
Max Wind Speed 18 mph    
Max Gust Speed 24 mph    
Visibility 10.0 miles    
Events      
T = Trace of Precipitation, MM = Missing Value Source: Averaged Metar Reports

Daily Weather History Graph

Daily Weather History Graph

Search for Another Location

Airport or City:

Astronomy

Aug. 25, 2019 Rise Set
Actual Time 5:57 AM MST 7:05 PM MST
Civil Twilight 5:31 AM MST 7:31 PM MST
Nautical Twilight 5:00 AM MST 8:02 PM MST
Astronomical Twilight 4:28 AM MST 8:34 PM MST
Moon 12:42 AM MST (8/25) 3:21 PM MST (8/25)
Length of Visible Light 14h 00m
Length of Day
13h 07m
Waning Crescent, 28% of the Moon is Illuminated
Aug 25
Waning Crescent
Aug 30
New
Sep 5
First Quarter
Sep 13
Full
Sep 21
Last Quarter

Hourly Weather History & Observations

Time (MST) Temp. Heat Index Dew Point Humidity Pressure Visibility Wind Dir Wind Speed Gust Speed Precip Events Conditions
12:53 AM 73.0 °F - 57.0 °F 57% 29.92 in 10.0 mi South 8.1 mph - N/A   Clear
1:53 AM 71.1 °F - 55.9 °F 59% 29.91 in 10.0 mi SSW 9.2 mph - N/A   Clear
2:53 AM 70.0 °F - 55.9 °F 61% 29.91 in 10.0 mi SSW 6.9 mph - N/A   Clear
3:53 AM 70.0 °F - 55.9 °F 61% 29.91 in 10.0 mi South 4.6 mph - N/A   Clear
4:53 AM 66.9 °F - 55.9 °F 68% 29.94 in 10.0 mi Calm Calm - N/A   Clear
6:53 AM 68.0 °F - 57.9 °F 70% 29.98 in 10.0 mi South 5.8 mph - N/A   Clear
7:53 AM 75.0 °F - 59.0 °F 57% 29.98 in 10.0 mi NNW 3.5 mph - N/A   Clear
8:53 AM 78.1 °F - 57.9 °F 50% 29.98 in 10.0 mi Variable 3.5 mph - N/A   Clear
9:53 AM 81.0 °F 80.4 °F 53.1 °F 38% 29.97 in 10.0 mi NNW 6.9 mph - N/A   Clear
10:53 AM 84.0 °F - 52.0 °F 33% 29.95 in 10.0 mi North 5.8 mph - N/A   Partly Cloudy
11:53 AM 87.1 °F - 48.0 °F 26% 29.93 in 10.0 mi WNW 12.7 mph 20.7 mph N/A   Scattered Clouds
12:53 PM 88.0 °F - 51.1 °F 28% 29.91 in 10.0 mi SW 10.4 mph 17.3 mph N/A   Partly Cloudy
1:53 PM 90.0 °F - 52.0 °F 27% 29.89 in 10.0 mi West 9.2 mph 17.3 mph N/A   Scattered Clouds
2:53 PM 90.0 °F 87.5 °F 53.1 °F 28% 29.87 in 10.0 mi West 6.9 mph 21.9 mph N/A   Scattered Clouds
3:53 PM 91.0 °F - 51.1 °F 25% 29.85 in 10.0 mi WNW 15.0 mph 19.6 mph N/A   Scattered Clouds
4:53 PM 90.0 °F - 48.9 °F 24% 29.86 in 10.0 mi West 16.1 mph 20.7 mph N/A   Clear
5:53 PM 88.0 °F - 50.0 °F 27% 29.86 in 10.0 mi WSW 15.0 mph - N/A   Clear
6:53 PM 84.0 °F - 51.1 °F 32% 29.87 in 10.0 mi WSW 16.1 mph - N/A   Clear
7:53 PM 81.0 °F - 52.0 °F 36% 29.87 in 10.0 mi SW 9.2 mph - N/A   Clear
8:53 PM 79.0 °F - 53.1 °F 40% 29.88 in 10.0 mi SSW 9.2 mph - N/A   Clear
9:53 PM 78.1 °F - 54.0 °F 43% 29.87 in 10.0 mi SW 10.4 mph - N/A   Clear
10:53 PM 75.0 °F - 54.0 °F 48% 29.87 in 10.0 mi SSW 5.8 mph - N/A   Clear
11:53 PM 75.0 °F - 54.0 °F 48% 29.86 in 10.0 mi SSW 3.5 mph - N/A   Clear